Home > Weather > Beja > Past weeks

Flag for Portugal Past Weather in Beja, Portugal — Yesterday and Last 2 Weeks

Now
86 °F

Sunny.


Feels Like: 83 °F
Forecast: 57 / 89 °F
Wind: 15 mph from Northwest

Location: Beja Airport

Current Time: Jun 30, 2016 at 6:38:52 PM

Latest Report: Jun 30, 2016 at 6:00 PM


Visibility: 10 mi

Pressure: 30.04 "Hg

Humidity: 25%

Dew Point: 46 °F

Location of BejaLocation

Past Weather in Beja — Graph

°F

Beja Temperature Yesterday

Maximum temperature yesterday: 90 °F (at 3:00 PM)
Minimum temperature yesterday: 61 °F (at 6:00 AM)
Average temperature yesterday: 75 °F

High & Low Weather Summary for the Past Weeks

 TemperatureHumidityPressure
High97 °F (Jun 20, 5:00 PM)100% (Jun 16, 5:00 AM)30.27 "Hg (Jun 16, 5:00 AM)
Low52 °F (Jun 17, 5:00 AM)13% (Jun 19, 5:00 PM)29.83 "Hg (Jun 15, 5:00 PM)
Average74 °F52%30.06 "Hg
* Reported Jun 15 5:00 PM — Jun 30 5:00 PM, Beja, Weather by CustomWeather, © 2016

Note: Actual official high and low records may vary slightly from our data, if they occured in-between our weather recording intervals... More about our weather records

Advertising

Beja Weather History for the Previous 24 Hours

Scroll right to see more
 ConditionsComfort  
Time TempWeatherWind HumidityBarometerVisibility
5:00 PM
Thu, Jun 30
88 °FPassing clouds.15 mph22%30.04 "HgN/A
4:00 PM88 °FPassing clouds.14 mph19%30.04 "HgN/A
3:00 PM86 °FPassing clouds.14 mph25%30.07 "HgN/A
2:00 PM84 °FPassing clouds.13 mph29%30.07 "HgN/A
1:00 PM82 °FPassing clouds.13 mph32%30.07 "HgN/A
12:00 PM79 °FPassing clouds.12 mph37%30.09 "HgN/A
11:00 AM73 °FPassing clouds.9 mph47%30.09 "HgN/A
10:00 AM68 °FSunny.12 mph60%30.09 "Hg10 mi
9:00 AM63 °FSunny.12 mph73%30.09 "Hg10 mi
8:00 AM59 °FSunny.12 mph88%30.07 "Hg10 mi
7:00 AM55 °FClear.9 mph100%30.07 "Hg10 mi
6:00 AM55 °FClear.8 mph94%30.04 "Hg10 mi
5:00 AM57 °FClear.10 mph88%30.04 "Hg10 mi
4:00 AM59 °FClear.9 mph82%30.04 "Hg10 mi
3:00 AM59 °FClear.13 mph82%30.04 "Hg10 mi
2:00 AM61 °FClear.9 mph72%30.07 "Hg10 mi
1:00 AM63 °FClear.10 mph68%30.07 "Hg10 mi
12:00 AM66 °FClear.13 mph64%30.04 "Hg10 mi
11:00 PM
Wed, Jun 29
70 °FClear.10 mph57%30.04 "Hg10 mi
10:00 PM73 °FClear.9 mph47%30.04 "Hg10 mi
9:00 PM77 °FSunny.12 mph44%30.01 "Hg10 mi
8:00 PM82 °FSunny.15 mph32%29.98 "Hg10 mi
7:00 PM88 °FSunny.15 mph21%29.98 "Hg10 mi
6:00 PM90 °FSunny.14 mph17%29.95 "Hg10 mi
Weather by CustomWeather, © 2016

See weather overviewHow to use our weather pages